Marysville, CA

7:53 PM PDT on September 18, 2019 (GMT -0700)
Yuba County

Weather History for KMYV - August, 2019

Change the Weather History Date:

Thursday, August 22, 2019

  Actual Average Record
Temperature  
Mean Temperature 82 °F -  
Max Temperature 98 °F 92 °F 104 °F (1969)
Min Temperature 68 °F 59 °F 51 °F (1959)
Cooling Degree Days 18    
Growing Degree Days 32 (Base 50)    
Moisture  
Dew Point 60 °F    
Average Humidity 50    
Maximum Humidity 78    
Minimum Humidity 27    
Precipitation  
Precipitation 0.00 in - - ()
Sea Level Pressure  
Sea Level Pressure 29.74 in    
Wind  
Wind Speed 4 mph ()    
Max Wind Speed 12 mph    
Max Gust Speed -    
Visibility 10.0 miles    
Events      
Averages and records for this station are not official NWS values.
T = Trace of Precipitation, MM = Missing Value Source: Averaged Metar Reports

Daily Weather History Graph

Daily Weather History Graph

Search for Another Location

Airport or City:

Astronomy

Aug. 22, 2019 Rise Set
Actual Time 6:25 AM PDT 7:51 PM PDT
Civil Twilight 5:57 AM PDT 8:19 PM PDT
Nautical Twilight 5:24 AM PDT 8:53 PM PDT
Astronomical Twilight 4:48 AM PDT 9:28 PM PDT
Moon 11:48 PM PDT (8/22) 1:03 PM PDT (8/22)
Length of Visible Light 14h 22m
Length of Day
13h 26m
Waning Gibbous, 58% of the Moon is Illuminated
Aug 22
Waning Gibbous
Aug 23
Last Quarter
Aug 30
New
Sep 5
First Quarter
Sep 13
Full

Hourly Weather History & Observations

Time (PDT) Temp. Heat Index Dew Point Humidity Pressure Visibility Wind Dir Wind Speed Gust Speed Precip Events Conditions
12:53 AM 73.0 °F - 57.9 °F 59% 29.80 in 10.0 mi ESE 3.5 mph - N/A   Clear
1:53 AM 72.0 °F - 55.9 °F 57% 29.79 in 10.0 mi South 3.5 mph - N/A   Clear
3:53 AM 71.1 °F - 60.1 °F 68% 29.78 in 10.0 mi SW 3.5 mph - N/A   Clear
4:53 AM 70.0 °F - 60.1 °F 71% 29.78 in 10.0 mi Calm Calm - N/A   Clear
5:53 AM 70.0 °F - 61.0 °F 73% 29.79 in 10.0 mi Calm Calm - N/A   Clear
6:53 AM 68.0 °F - 61.0 °F 78% 29.80 in 10.0 mi Calm Calm - N/A   Clear
7:53 AM 73.9 °F - 63.0 °F 68% 29.81 in 10.0 mi SSW 3.5 mph - N/A   Clear
8:53 AM 78.1 °F - 64.0 °F 62% 29.80 in 10.0 mi Variable 3.5 mph - N/A   Clear
9:53 AM 84.0 °F 84.4 °F 61.0 °F 46% 29.79 in 10.0 mi NW 11.5 mph - N/A   Clear
10:53 AM 86.0 °F 86.3 °F 62.1 °F 44% 29.79 in 10.0 mi WNW 9.2 mph - N/A   Clear
11:53 AM 89.1 °F 89.0 °F 61.0 °F 39% 29.79 in 10.0 mi NNW 10.4 mph - N/A   Clear
12:53 PM 93.0 °F 93.8 °F 62.1 °F 36% 29.77 in 10.0 mi NNW 11.5 mph - 0.00 in   Clear
1:53 PM 95.0 °F 95.2 °F 61.0 °F 32% 29.74 in 10.0 mi Variable 6.9 mph - N/A   Clear
2:53 PM 97.0 °F 97.4 °F 61.0 °F 30% 29.71 in 10.0 mi WNW 8.1 mph - N/A   Clear
3:53 PM 97.0 °F 96.9 °F 60.1 °F 29% 29.69 in 10.0 mi NNE 3.5 mph - N/A   Clear
4:53 PM 97.0 °F 96.1 °F 57.9 °F 27% 29.68 in 10.0 mi NNW 6.9 mph - N/A   Clear
5:53 PM 96.1 °F 95.2 °F 57.9 °F 28% 29.67 in 10.0 mi Variable 4.6 mph - N/A   Clear
6:53 PM 95.0 °F 93.7 °F 57.0 °F 28% 29.66 in 10.0 mi North 3.5 mph - N/A   Clear
7:53 PM 89.1 °F 88.2 °F 59.0 °F 36% 29.66 in 10.0 mi Calm Calm - N/A   Clear
8:53 PM 80.1 °F 81.5 °F 63.0 °F 56% 29.67 in 10.0 mi SW 5.8 mph - N/A   Clear
9:53 PM 78.1 °F - 62.1 °F 58% 29.68 in 10.0 mi NNW 4.6 mph - N/A   Clear
10:53 PM 75.9 °F - 61.0 °F 60% 29.68 in 10.0 mi Calm Calm - N/A   Clear
11:53 PM 75.0 °F - 61.0 °F 62% 29.68 in 10.0 mi East 3.5 mph - N/A   Clear